Weather History for KBKD - May, 2013

Change the Weather History Date:

Thursday, May 16, 2013

  Actual Average (KABI) Record (KABI)
Temperature  
Mean Temperature 80 °F 73 °F  
Max Temperature 95 °F 85 °F 106 °F (2000)
Min Temperature 65 °F 62 °F 43 °F (1916)
Degree Days  
Heating Degree Days 0 0  
Month to date heating degree days 13  
Since 1 July heating degree days 2555  
Cooling Degree Days 15 9  
Month to date cooling degree days 111  
Year to date cooling degree days 244  
Growing Degree Days 30 (Base 50)    
Moisture  
Dew Point 62 °F    
Average Humidity 57    
Maximum Humidity 83    
Minimum Humidity 27    
Precipitation  
Precipitation 0.00 in 0.10 in 2.01 in (2009)
Month to date precipitation 1.42  
Year to date precipitation 7.18  
Sea Level Pressure  
Sea Level Pressure 29.75 in    
Wind  
Wind Speed 8 mph (SSE)    
Max Wind Speed 17 mph    
Max Gust Speed 23 mph    
Visibility 10 miles    
Events      
T = Trace of Precipitation, MM = Missing Value Source: NWS Daily Summary

Daily Weather History Graph

Daily Weather History Graph

Search for Another Location

Airport or City:

Trip Planner

Search our weather history database for the weather conditions in past years. The results will help you decide how hot, cold, wet, or windy it might be!

Date:

Astronomy

May. 16, 2013 Rise Set
Actual Time 6:35 AM CDT 8:28 PM CDT
Civil Twilight 6:08 AM CDT 8:55 PM CDT
Nautical Twilight 5:35 AM CDT 9:28 PM CDT
Astronomical Twilight 5:00 AM CDT 10:03 PM CDT
Moon 12:04 PM CDT (5/16) 12:55 AM CDT (5/16)
Length of Visible Light 14h 46m
Length of Day
13h 52m
Waxing Crescent, 36% of the Moon is Illuminated
May 16
Waxing Crescent
May 17
First Quarter
May 24
Full
May 31
Last Quarter
Jun 8
New

Hourly Weather History & Observations

Time (CDT) Temp. Heat Index Dew Point Humidity Pressure Visibility Wind Dir Wind Speed Gust Speed Precip Events Conditions
12:15 AM 74.3 °F - 56.7 °F 54% 29.73 in 10.0 mi East 9.2 mph - N/A   Clear
12:35 AM 73.0 °F - 56.1 °F 55% 29.74 in 10.0 mi SE 8.1 mph - N/A   Clear
12:55 AM 71.6 °F - 55.2 °F 56% 29.74 in 10.0 mi East 10.4 mph - N/A   Clear
1:15 AM 71.6 °F - 56.7 °F 59% 29.76 in 10.0 mi SE 15.0 mph - N/A   Clear
1:35 AM 72.0 °F - 56.3 °F 58% 29.75 in 10.0 mi SSE 16.1 mph 21.9 mph N/A   Clear
1:55 AM 70.9 °F - 56.8 °F 61% 29.74 in 10.0 mi South 17.3 mph 23.0 mph N/A   Clear
2:15 AM 69.6 °F - 57.2 °F 65% 29.74 in 10.0 mi SSE 12.7 mph 20.7 mph N/A   Clear
2:35 AM 68.2 °F - 57.4 °F 68% 29.74 in 10.0 mi South 10.4 mph 17.3 mph N/A   Clear
2:55 AM 67.5 °F - 57.7 °F 71% 29.73 in 10.0 mi South 10.4 mph - N/A   Clear
3:15 AM 67.1 °F - 58.3 °F 73% 29.73 in 10.0 mi South 8.1 mph - N/A   Clear
3:35 AM 66.4 °F - 58.5 °F 76% 29.72 in 10.0 mi South 5.8 mph - N/A   Clear
3:55 AM 66.2 °F - 59.0 °F 78% 29.72 in 10.0 mi South 3.5 mph - N/A   Clear
4:15 AM 66.0 °F - 58.8 °F 78% 29.73 in 10.0 mi ENE 8.1 mph - N/A   Clear
4:35 AM 66.4 °F - 59.9 °F 80% 29.74 in 10.0 mi East 5.8 mph - N/A   Clear
4:55 AM 66.4 °F - 59.9 °F 80% 29.75 in 10.0 mi East 8.1 mph - N/A   Clear
5:15 AM 65.8 °F - 59.5 °F 80% 29.75 in 10.0 mi East 10.4 mph - N/A   Clear
5:35 AM 66.2 °F - 60.6 °F 82% 29.75 in 10.0 mi ESE 9.2 mph - N/A   Clear
5:55 AM 66.4 °F - 61.0 °F 83% 29.76 in 10.0 mi ESE 8.1 mph - N/A   Scattered Clouds
6:15 AM 66.4 °F - 60.8 °F 82% 29.76 in 10.0 mi SE 9.2 mph - N/A   Mostly Cloudy
6:35 AM 66.2 °F - 60.8 °F 83% 29.76 in 10.0 mi SE 4.6 mph - N/A   Mostly Cloudy
6:55 AM 67.1 °F - 61.7 °F 83% 29.76 in 10.0 mi SE 3.5 mph - N/A   Mostly Cloudy
7:15 AM 68.0 °F - 61.7 °F 80% 29.77 in 10.0 mi Calm Calm - N/A   Overcast
7:35 AM 69.1 °F - 62.6 °F 80% 29.78 in 10.0 mi Calm Calm - N/A   Overcast
7:55 AM 70.5 °F - 63.9 °F 79% 29.79 in 10.0 mi SSE 4.6 mph - N/A   Overcast
8:15 AM 71.8 °F - 64.4 °F 77% 29.79 in 10.0 mi South 5.8 mph - N/A   Overcast
8:35 AM 73.0 °F - 64.9 °F 76% 29.79 in 10.0 mi South 3.5 mph - N/A   Overcast
8:55 AM 75.9 °F - 66.2 °F 72% 29.79 in 10.0 mi SSW 12.7 mph 17.3 mph N/A   Overcast
9:15 AM 76.8 °F - 66.4 °F 70% 29.79 in 10.0 mi SSW 13.8 mph 19.6 mph N/A   Mostly Cloudy
9:35 AM 78.3 °F - 66.7 °F 68% 29.79 in 10.0 mi SSW 12.7 mph - N/A   Mostly Cloudy
9:55 AM 79.7 °F - 67.1 °F 65% 29.78 in 10.0 mi SW 15.0 mph 18.4 mph N/A   Mostly Cloudy
10:15 AM 79.9 °F - 67.1 °F 65% 29.78 in 10.0 mi SSW 11.5 mph - N/A   Mostly Cloudy
10:35 AM 82.0 °F 84.5 °F 66.7 °F 60% 29.78 in 10.0 mi SW 13.8 mph - N/A   Overcast
10:55 AM 82.8 °F 84.9 °F 66.2 °F 57% 29.77 in 10.0 mi SW 9.2 mph 20.7 mph N/A   Mostly Cloudy
11:15 AM 84.9 °F 87.4 °F 66.4 °F 54% 29.78 in 10.0 mi WSW 12.7 mph 16.1 mph N/A   Mostly Cloudy
11:35 AM 85.6 °F 87.6 °F 65.5 °F 51% 29.78 in 10.0 mi WSW 11.5 mph 18.4 mph N/A   Mostly Cloudy
11:55 AM 86.2 °F 88.2 °F 65.3 °F 50% 29.78 in 10.0 mi WSW 8.1 mph - N/A   Mostly Cloudy
12:15 PM 88.0 °F 89.6 °F 64.6 °F 46% 29.78 in 7.0 mi West 8.1 mph - N/A   Scattered Clouds
12:35 PM 88.5 °F 89.5 °F 63.1 °F 43% 29.78 in 5.0 mi West 9.2 mph - N/A   Haze
12:55 PM 89.1 °F 90.0 °F 63.5 °F 42% 29.77 in 10.0 mi West 5.8 mph - N/A   Scattered Clouds
1:15 PM 89.4 °F 90.2 °F 63.1 °F 41% 29.76 in 10.0 mi Calm Calm - N/A   Scattered Clouds
1:35 PM 89.8 °F 90.4 °F 62.2 °F 40% 29.76 in 10.0 mi West 3.5 mph - N/A   Mostly Cloudy
1:55 PM 89.8 °F 90.4 °F 62.4 °F 40% 29.76 in 10.0 mi SSE 5.8 mph - N/A   Mostly Cloudy
2:15 PM 90.7 °F 91.0 °F 62.1 °F 38% 29.75 in 10.0 mi Calm Calm - N/A   Mostly Cloudy
2:35 PM 92.5 °F 92.2 °F 60.6 °F 34% 29.75 in 10.0 mi WNW 6.9 mph - N/A   Scattered Clouds
2:55 PM 92.8 °F 92.4 °F 60.1 °F 33% 29.74 in 10.0 mi Calm Calm - N/A   Clear
3:15 PM 93.0 °F 92.7 °F 60.1 °F 33% 29.74 in 10.0 mi NW 3.5 mph - N/A   Clear
3:35 PM 93.9 °F 93.6 °F 60.1 °F 32% 29.73 in 10.0 mi Calm Calm - N/A   Clear
3:55 PM 94.8 °F 94.2 °F 59.2 °F 30% 29.73 in 10.0 mi East 3.5 mph - N/A   Clear
4:15 PM 95.0 °F 94.0 °F 58.3 °F 29% 29.72 in 10.0 mi NNW 3.5 mph - N/A   Clear
4:35 PM 95.0 °F 94.0 °F 58.5 °F 29% 29.71 in 10.0 mi North 3.5 mph - N/A   Clear
4:55 PM 95.2 °F 94.3 °F 58.1 °F 29% 29.71 in 10.0 mi Calm Calm - N/A   Clear
5:15 PM 94.5 °F 93.3 °F 57.2 °F 29% 29.70 in 10.0 mi Calm Calm - N/A   Clear
5:35 PM 95.4 °F 94.2 °F 57.2 °F 28% 29.70 in 10.0 mi Calm Calm - N/A   Clear
5:55 PM 95.5 °F 94.1 °F 56.5 °F 27% 29.70 in 10.0 mi Calm Calm - N/A   Clear
6:15 PM 95.7 °F 94.3 °F 57.0 °F 27% 29.70 in 10.0 mi East 6.9 mph - N/A   Clear
6:35 PM 95.2 °F 94.3 °F 58.1 °F 29% 29.69 in 10.0 mi East 8.1 mph - N/A   Clear
6:55 PM 94.3 °F 93.0 °F 57.4 °F 29% 29.69 in 10.0 mi Calm Calm - N/A   Clear
7:15 PM 94.3 °F 93.0 °F 57.0 °F 29% 29.70 in 10.0 mi ENE 6.9 mph - N/A   Clear
7:35 PM 91.2 °F 92.5 °F 64.0 °F 40% 29.70 in 10.0 mi ENE 13.8 mph 18.4 mph N/A   Clear
7:55 PM 89.2 °F 91.6 °F 66.0 °F 46% 29.71 in 10.0 mi ENE 12.7 mph 18.4 mph N/A   Clear
8:15 PM 87.8 °F 90.4 °F 66.6 °F 49% 29.72 in 10.0 mi East 9.2 mph 16.1 mph N/A   Clear
8:35 PM 86.7 °F 89.6 °F 67.1 °F 52% 29.73 in 10.0 mi ENE 6.9 mph - N/A   Clear
8:55 PM 86.9 °F 89.9 °F 67.1 °F 52% 29.74 in 10.0 mi SE 10.4 mph - N/A   Clear
9:15 PM 85.1 °F 89.1 °F 69.1 °F 59% 29.75 in 10.0 mi SE 10.4 mph - N/A   Clear
9:35 PM 83.3 °F 87.4 °F 69.8 °F 64% 29.75 in 10.0 mi SE 8.1 mph - N/A   Clear
9:55 PM 82.4 °F 86.3 °F 69.8 °F 66% 29.76 in 10.0 mi SE 11.5 mph 18.4 mph N/A   Clear
10:15 PM 81.5 °F 84.8 °F 69.3 °F 66% 29.76 in 10.0 mi SE 9.2 mph - N/A   Clear
10:35 PM 80.8 °F 83.8 °F 68.9 °F 67% 29.77 in 10.0 mi SE 11.5 mph 18.4 mph N/A   Clear
10:55 PM 80.2 °F 83.0 °F 68.5 °F 67% 29.77 in 10.0 mi SE 10.4 mph - N/A   Clear
11:15 PM 79.7 °F - 68.4 °F 68% 29.76 in 10.0 mi SE 8.1 mph - N/A   Clear
11:35 PM 79.2 °F - 68.2 °F 69% 29.76 in 10.0 mi SE 10.4 mph 16.1 mph N/A   Clear
11:55 PM 78.4 °F - 68.2 °F 71% 29.76 in 10.0 mi SE 8.1 mph - N/A   Clear